Time,TemperatureF,DewpointF,PressureIn,WindDirection,WindDirectionDegrees,WindSpeedMPH,WindSpeedGustMPH,Humidity,HourlyPrecipIn,Conditions,Clouds,dailyrainin,SoftwareType,DateUTC
2013-07-04 00:00:00,73.9,61.8,29.94,South,175,0.0,0.0,66,0.00,,CLR,0.00,VWS V14.01,2013-07-04 05:00:00,
2013-07-04 00:01:00,73.4,61.8,29.94,South,175,0.0,0.0,67,0.00,,CLR,0.00,VWS V14.01,2013-07-04 05:01:00,
2013-07-04 00:06:00,73.2,61.6,29.94,South,175,0.0,0.0,67,0.00,,CLR,0.00,VWS V14.01,2013-07-04 05:06:00,
2013-07-04 00:10:00,73.4,61.4,29.94,South,175,0.0,0.0,66,0.00,,CLR,0.00,VWS V14.01,2013-07-04 05:10:00,
2013-07-04 00:11:00,73.0,61.4,29.94,South,175,0.0,0.0,67,0.00,,CLR,0.00,VWS V14.01,2013-07-04 05:11:00,
2013-07-04 00:16:00,73.0,61.4,29.95,South,175,0.0,0.0,67,0.00,,CLR,0.00,VWS V14.01,2013-07-04 05:16:00,
2013-07-04 00:20:00,73.2,61.6,29.94,South,175,0.0,0.0,67,0.00,,CLR,0.00,VWS V14.01,2013-07-04 05:20:00,
2013-07-04 00:21:00,73.0,61.4,29.95,South,175,0.0,0.0,67,0.00,,CLR,0.00,VWS V14.01,2013-07-04 05:21:00,
2013-07-04 00:26:00,72.8,61.6,29.95,South,175,0.0,0.0,68,0.00,,CLR,0.00,VWS V14.01,2013-07-04 05:26:00,
2013-07-04 00:30:00,73.0,61.4,29.95,South,175,0.0,0.0,67,0.00,,CLR,0.00,VWS V14.01,2013-07-04 05:30:00,
2013-07-04 00:31:00,72.7,61.1,29.95,South,175,0.0,0.0,67,0.00,,CLR,0.00,VWS V14.01,2013-07-04 05:31:00,
2013-07-04 00:36:00,72.7,61.1,29.95,South,175,0.0,0.0,67,0.00,,CLR,0.00,VWS V14.01,2013-07-04 05:36:00,
2013-07-04 00:40:00,72.8,61.6,29.95,South,175,0.0,0.0,68,0.00,,CLR,0.00,VWS V14.01,2013-07-04 05:40:00,
2013-07-04 00:41:00,72.5,60.9,29.95,South,175,0.0,0.0,67,0.00,,CLR,0.00,VWS V14.01,2013-07-04 05:41:00,
2013-07-04 00:46:00,72.5,60.5,29.95,South,175,0.0,0.0,66,0.00,,CLR,0.00,VWS V14.01,2013-07-04 05:46:00,
2013-07-04 00:50:00,72.7,61.1,29.95,South,175,0.0,0.0,67,0.00,,CLR,0.00,VWS V14.01,2013-07-04 05:50:00,
2013-07-04 00:51:00,72.5,60.5,29.95,South,175,0.0,0.0,66,0.00,,CLR,0.00,VWS V14.01,2013-07-04 05:51:00,
2013-07-04 00:56:00,72.5,60.5,29.95,South,175,0.0,0.0,66,0.00,,CLR,0.00,VWS V14.01,2013-07-04 05:56:00,
2013-07-04 01:00:00,72.5,60.5,29.95,South,175,0.0,0.0,66,0.00,,CLR,0.00,VWS V14.01,2013-07-04 06:00:00,
2013-07-04 01:01:00,72.5,60.5,29.96,South,175,0.0,0.0,66,0.00,,CLR,0.00,VWS V14.01,2013-07-04 06:01:00,
2013-07-04 01:06:00,72.3,60.7,29.96,South,175,0.0,0.0,67,0.00,,CLR,0.00,VWS V14.01,2013-07-04 06:06:00,
2013-07-04 01:10:00,72.5,60.5,29.95,South,175,0.0,0.0,66,0.00,,CLR,0.00,VWS V14.01,2013-07-04 06:10:00,
2013-07-04 01:11:00,72.3,60.7,29.96,South,175,0.0,0.0,67,0.00,,CLR,0.00,VWS V14.01,2013-07-04 06:11:00,
2013-07-04 01:16:00,72.3,60.3,29.97,South,175,0.0,0.0,66,0.00,,CLR,0.00,VWS V14.01,2013-07-04 06:16:00,
2013-07-04 01:20:00,72.3,60.3,29.96,South,175,0.0,0.0,66,0.00,,CLR,0.00,VWS V14.01,2013-07-04 06:20:00,
2013-07-04 01:21:00,72.3,60.7,29.97,South,175,0.0,0.0,67,0.00,,CLR,0.00,VWS V14.01,2013-07-04 06:21:00,
2013-07-04 01:26:00,72.2,60.7,29.97,South,175,0.0,0.0,67,0.00,,CLR,0.00,VWS V14.01,2013-07-04 06:26:00,
2013-07-04 01:30:00,72.3,61.6,29.97,South,175,0.0,0.0,69,0.00,,CLR,0.00,VWS V14.01,2013-07-04 06:30:00,
2013-07-04 01:31:00,72.0,60.9,29.97,South,175,0.0,0.0,68,0.00,,CLR,0.00,VWS V14.01,2013-07-04 06:31:00,
2013-07-04 01:36:00,71.6,60.5,29.97,South,175,0.0,0.0,68,0.00,,CLR,0.00,VWS V14.01,2013-07-04 06:36:00,
2013-07-04 01:40:00,72.2,61.1,29.97,South,175,0.0,0.0,68,0.00,,CLR,0.00,VWS V14.01,2013-07-04 06:40:00,
2013-07-04 01:41:00,71.5,60.8,29.97,South,175,0.0,0.0,69,0.00,,CLR,0.00,VWS V14.01,2013-07-04 06:41:00,
2013-07-04 01:46:00,71.3,61.4,29.97,South,175,0.0,0.0,71,0.00,,CLR,0.00,VWS V14.01,2013-07-04 06:46:00,
2013-07-04 01:50:00,71.6,60.5,29.97,South,175,0.0,0.0,68,0.00,,CLR,0.00,VWS V14.01,2013-07-04 06:50:00,
2013-07-04 01:51:00,71.1,61.2,29.97,South,175,0.0,0.0,71,0.00,,CLR,0.00,VWS V14.01,2013-07-04 06:51:00,
2013-07-04 01:56:00,71.1,61.6,29.97,South,175,0.0,0.0,72,0.00,,CLR,0.00,VWS V14.01,2013-07-04 06:56:00,
2013-07-04 02:00:00,71.3,61.4,29.97,South,175,0.0,0.0,71,0.00,,CLR,0.00,VWS V14.01,2013-07-04 07:00:00,
2013-07-04 02:01:00,71.0,61.5,29.97,South,175,0.0,0.0,72,0.00,,CLR,0.00,VWS V14.01,2013-07-04 07:01:00,
2013-07-04 02:06:00,70.8,61.3,29.97,South,175,0.0,0.0,72,0.00,,CLR,0.00,VWS V14.01,2013-07-04 07:06:00,
2013-07-04 02:10:00,71.1,61.6,29.97,South,175,0.0,0.0,72,0.00,,CLR,0.00,VWS V14.01,2013-07-04 07:10:00,
2013-07-04 02:11:00,70.6,61.5,29.97,South,175,0.0,0.0,73,0.00,,CLR,0.00,VWS V14.01,2013-07-04 07:11:00,
2013-07-04 02:16:00,70.4,61.3,29.97,South,175,0.0,0.0,73,0.00,,CLR,0.00,VWS V14.01,2013-07-04 07:16:00,
2013-07-04 02:20:00,70.6,61.2,29.97,South,175,0.0,0.0,72,0.00,,CLR,0.00,VWS V14.01,2013-07-04 07:20:00,
2013-07-04 02:21:00,70.3,62.0,29.97,South,175,0.0,0.0,75,0.00,,CLR,0.00,VWS V14.01,2013-07-04 07:21:00,
2013-07-04 02:26:00,70.1,61.8,29.97,South,175,0.0,0.0,75,0.00,,CLR,0.00,VWS V14.01,2013-07-04 07:26:00,
2013-07-04 02:30:00,70.4,61.3,29.97,South,175,0.0,0.0,73,0.00,,CLR,0.00,VWS V14.01,2013-07-04 07:30:00,
2013-07-04 02:31:00,70.1,62.2,29.97,South,175,0.0,0.0,76,0.00,,CLR,0.00,VWS V14.01,2013-07-04 07:31:00,
2013-07-04 02:36:00,69.9,62.4,29.97,South,175,0.0,0.0,77,0.00,,CLR,0.00,VWS V14.01,2013-07-04 07:36:00,
2013-07-04 02:40:00,70.1,61.8,29.97,South,175,0.0,0.0,75,0.00,,CLR,0.00,VWS V14.01,2013-07-04 07:40:00,
2013-07-04 02:41:00,69.9,62.4,29.97,South,175,0.0,0.0,77,0.00,,CLR,0.00,VWS V14.01,2013-07-04 07:41:00,
2013-07-04 02:46:00,69.8,62.6,29.97,South,175,0.0,0.0,78,0.00,,CLR,0.00,VWS V14.01,2013-07-04 07:46:00,
2013-07-04 02:50:00,69.9,62.4,29.97,South,175,0.0,0.0,77,0.00,,CLR,0.00,VWS V14.01,2013-07-04 07:50:00,
2013-07-04 02:51:00,69.8,62.6,29.97,South,175,0.0,0.0,78,0.00,,CLR,0.00,VWS V14.01,2013-07-04 07:51:00,
2013-07-04 02:56:00,69.6,62.8,29.97,South,175,0.0,0.0,79,0.00,,CLR,0.00,VWS V14.01,2013-07-04 07:56:00,
2013-07-04 03:00:00,69.8,62.6,29.97,South,175,0.0,0.0,78,0.00,,CLR,0.00,VWS V14.01,2013-07-04 08:00:00,
2013-07-04 03:01:00,69.6,62.8,29.97,South,175,0.0,0.0,79,0.00,,CLR,0.00,VWS V14.01,2013-07-04 08:01:00,
2013-07-04 03:06:00,69.6,63.2,29.97,South,175,0.0,0.0,80,0.00,,CLR,0.00,VWS V14.01,2013-07-04 08:06:00,
2013-07-04 03:10:00,69.6,62.8,29.97,South,175,0.0,0.0,79,0.00,,CLR,0.00,VWS V14.01,2013-07-04 08:10:00,
2013-07-04 03:11:00,69.6,63.2,29.97,South,175,0.0,0.0,80,0.00,,CLR,0.00,VWS V14.01,2013-07-04 08:11:00,
2013-07-04 03:16:00,69.8,63.4,29.97,South,175,0.0,0.0,80,0.00,,CLR,0.00,VWS V14.01,2013-07-04 08:16:00,
2013-07-04 03:20:00,69.6,63.2,29.97,South,175,0.0,0.0,80,0.00,,CLR,0.00,VWS V14.01,2013-07-04 08:20:00,
2013-07-04 03:21:00,69.8,63.4,29.97,South,175,0.0,0.0,80,0.00,,BKN014,0.00,VWS V14.01,2013-07-04 08:21:00,
2013-07-04 03:26:00,69.8,63.7,29.97,South,175,0.0,0.0,81,0.00,,BKN014,0.00,VWS V14.01,2013-07-04 08:26:00,
2013-07-04 03:30:00,69.8,63.4,29.97,South,175,0.0,0.0,80,0.00,,CLR,0.00,VWS V14.01,2013-07-04 08:30:00,
2013-07-04 03:31:00,69.8,63.7,29.97,South,175,0.0,0.0,81,0.00,,BKN014,0.00,VWS V14.01,2013-07-04 08:31:00,
2013-07-04 03:36:00,69.8,64.1,29.97,South,175,0.0,0.0,82,0.00,,SCT014,0.00,VWS V14.01,2013-07-04 08:36:00,
2013-07-04 03:40:00,69.8,63.7,29.97,South,175,0.0,0.0,81,0.00,,CLR,0.00,VWS V14.01,2013-07-04 08:40:00,
2013-07-04 03:41:00,69.6,63.9,29.97,South,175,0.0,0.0,82,0.00,,SCT014,0.00,VWS V14.01,2013-07-04 08:41:00,
2013-07-04 03:46:00,69.4,63.7,29.96,South,175,0.0,0.0,82,0.00,,SCT014,0.00,VWS V14.01,2013-07-04 08:46:00,
2013-07-04 03:50:00,69.6,63.9,29.97,South,175,0.0,0.0,82,0.00,,CLR,0.00,VWS V14.01,2013-07-04 08:50:00,
2013-07-04 03:51:00,69.4,63.7,29.96,South,175,0.0,0.0,82,0.00,,SCT014,0.00,VWS V14.01,2013-07-04 08:51:00,
2013-07-04 03:56:00,69.3,63.9,29.96,South,175,0.0,0.0,83,0.00,,SCT014,0.00,VWS V14.01,2013-07-04 08:56:00,
2013-07-04 04:00:00,69.4,63.7,29.96,South,175,0.0,0.0,82,0.00,,CLR,0.00,VWS V14.01,2013-07-04 09:00:00,
2013-07-04 04:01:00,69.3,63.9,29.97,South,175,0.0,0.0,83,0.00,,SCT014,0.00,VWS V14.01,2013-07-04 09:01:00,
2013-07-04 04:06:00,69.1,63.7,29.97,South,175,0.0,0.0,83,0.00,,FEW016,0.00,VWS V14.01,2013-07-04 09:06:00,
2013-07-04 04:10:00,69.3,63.9,29.96,South,175,0.0,0.0,83,0.00,,CLR,0.00,VWS V14.01,2013-07-04 09:10:00,
2013-07-04 04:11:00,68.9,63.5,29.97,South,175,0.0,0.0,83,0.00,,FEW016,0.00,VWS V14.01,2013-07-04 09:11:00,
2013-07-04 04:16:00,68.8,63.4,29.97,South,175,0.0,0.0,83,0.00,,FEW016,0.00,VWS V14.01,2013-07-04 09:16:00,
2013-07-04 04:20:00,69.1,63.7,29.97,South,175,0.0,0.0,83,0.00,,CLR,0.00,VWS V14.01,2013-07-04 09:20:00,
2013-07-04 04:21:00,68.4,63.0,29.97,South,175,0.0,0.0,83,0.00,,BKN014,0.00,VWS V14.01,2013-07-04 09:21:00,
2013-07-04 04:26:00,68.1,62.8,29.97,South,175,0.0,0.0,83,0.00,,BKN014,0.00,VWS V14.01,2013-07-04 09:26:00,
2013-07-04 04:30:00,68.8,63.4,29.97,South,175,0.0,0.0,83,0.00,,CLR,0.00,VWS V14.01,2013-07-04 09:30:00,
2013-07-04 04:31:00,67.9,62.5,29.97,South,175,0.0,0.0,83,0.00,,BKN014,0.00,VWS V14.01,2013-07-04 09:31:00,
2013-07-04 04:36:00,67.8,62.5,29.97,South,175,0.0,0.0,83,0.00,,BKN014,0.00,VWS V14.01,2013-07-04 09:36:00,
2013-07-04 04:40:00,68.1,62.8,29.97,South,175,0.0,0.0,83,0.00,,CLR,0.00,VWS V14.01,2013-07-04 09:40:00,
2013-07-04 04:41:00,67.6,62.3,29.97,South,175,0.0,0.0,83,0.00,,SCT012,0.00,VWS V14.01,2013-07-04 09:41:00,
2013-07-04 04:46:00,67.4,62.4,29.97,South,175,0.0,0.0,84,0.00,,SCT012,0.00,VWS V14.01,2013-07-04 09:46:00,
2013-07-04 04:50:00,67.8,62.5,29.97,South,175,0.0,0.0,83,0.00,,CLR,0.00,VWS V14.01,2013-07-04 09:50:00,
2013-07-04 04:51:00,67.4,62.4,29.97,South,175,0.0,0.0,84,0.00,,SCT012,0.00,VWS V14.01,2013-07-04 09:51:00,
2013-07-04 04:56:00,67.3,62.3,29.97,South,175,0.0,0.0,84,0.00,,SCT012,0.00,VWS V14.01,2013-07-04 09:56:00,
2013-07-04 05:00:00,67.4,62.4,29.97,South,175,0.0,0.0,84,0.00,,CLR,0.00,VWS V14.01,2013-07-04 10:00:00,
2013-07-04 05:01:00,67.1,62.5,29.96,South,175,0.0,0.0,85,0.00,,SCT012,0.00,VWS V14.01,2013-07-04 10:01:00,
2013-07-04 05:06:00,67.1,62.5,29.96,South,175,0.0,0.0,85,0.00,,CLR,0.00,VWS V14.01,2013-07-04 10:06:00,
2013-07-04 05:10:00,67.3,62.3,29.97,South,175,0.0,0.0,84,0.00,,CLR,0.00,VWS V14.01,2013-07-04 10:10:00,
2013-07-04 05:11:00,66.9,62.6,29.96,South,175,0.0,0.0,86,0.00,,CLR,0.00,VWS V14.01,2013-07-04 10:11:00,
2013-07-04 05:16:00,66.9,62.6,29.96,South,175,0.0,0.0,86,0.00,,CLR,0.00,VWS V14.01,2013-07-04 10:16:00,
2013-07-04 05:20:00,67.1,62.5,29.96,South,175,0.0,0.0,85,0.00,,CLR,0.00,VWS V14.01,2013-07-04 10:20:00,
2013-07-04 05:21:00,66.8,62.5,29.96,South,175,0.0,0.0,86,0.00,,CLR,0.00,VWS V14.01,2013-07-04 10:21:00,
2013-07-04 05:26:00,66.6,62.6,29.96,South,175,0.0,0.0,87,0.00,,CLR,0.00,VWS V14.01,2013-07-04 10:26:00,
2013-07-04 05:30:00,66.9,62.6,29.96,South,175,0.0,0.0,86,0.00,,CLR,0.00,VWS V14.01,2013-07-04 10:30:00,
2013-07-04 05:31:00,66.6,62.6,29.96,South,175,0.0,0.0,87,0.00,,CLR,0.00,VWS V14.01,2013-07-04 10:31:00,
2013-07-04 05:36:00,66.6,62.6,29.96,South,175,0.0,0.0,87,0.00,,CLR,0.00,VWS V14.01,2013-07-04 10:36:00,
2013-07-04 05:40:00,66.6,62.6,29.96,South,175,0.0,0.0,87,0.00,,CLR,0.00,VWS V14.01,2013-07-04 10:40:00,
2013-07-04 05:41:00,66.4,62.7,29.96,South,175,0.0,0.0,88,0.00,,CLR,0.00,VWS V14.01,2013-07-04 10:41:00,
2013-07-04 05:46:00,66.4,62.7,29.96,South,175,0.0,0.0,88,0.00,,CLR,0.00,VWS V14.01,2013-07-04 10:46:00,
2013-07-04 05:50:00,66.4,62.4,29.96,South,175,0.0,0.0,87,0.00,,CLR,0.00,VWS V14.01,2013-07-04 10:50:00,
2013-07-04 05:51:00,66.3,62.6,29.96,South,175,0.0,0.0,88,0.00,,CLR,0.00,VWS V14.01,2013-07-04 10:51:00,
2013-07-04 05:56:00,66.3,62.6,29.96,South,175,0.0,0.0,88,0.00,,CLR,0.00,VWS V14.01,2013-07-04 10:56:00,
2013-07-04 06:00:00,66.4,62.7,29.96,South,175,0.0,0.0,88,0.00,,CLR,0.00,VWS V14.01,2013-07-04 11:00:00,
2013-07-04 06:01:00,66.3,63.0,29.95,South,175,0.0,0.0,89,0.00,,CLR,0.00,VWS V14.01,2013-07-04 11:01:00,
2013-07-04 06:06:00,66.3,63.0,29.95,South,175,0.0,0.0,89,0.00,,CLR,0.00,VWS V14.01,2013-07-04 11:06:00,
2013-07-04 06:10:00,66.3,62.7,29.96,South,175,0.0,0.0,88,0.00,,CLR,0.00,VWS V14.01,2013-07-04 11:10:00,
2013-07-04 06:11:00,66.1,62.8,29.95,South,175,0.0,0.0,89,0.00,,CLR,0.00,VWS V14.01,2013-07-04 11:11:00,
2013-07-04 06:16:00,65.9,62.6,29.96,South,175,0.0,0.0,89,0.00,,CLR,0.00,VWS V14.01,2013-07-04 11:16:00,
2013-07-04 06:20:00,66.3,63.0,29.95,South,175,0.0,0.0,89,0.00,,CLR,0.00,VWS V14.01,2013-07-04 11:20:00,
2013-07-04 06:21:00,65.9,62.6,29.96,South,175,0.0,0.0,89,0.00,,CLR,0.00,VWS V14.01,2013-07-04 11:21:00,
2013-07-04 06:26:00,65.8,62.8,29.96,South,175,0.0,0.0,90,0.00,,CLR,0.00,VWS V14.01,2013-07-04 11:26:00,
2013-07-04 06:30:00,65.9,62.6,29.96,South,175,0.0,0.0,89,0.00,,CLR,0.00,VWS V14.01,2013-07-04 11:30:00,
2013-07-04 06:31:00,65.6,62.6,29.97,South,175,0.0,0.0,90,0.00,,CLR,0.00,VWS V14.01,2013-07-04 11:31:00,
2013-07-04 06:36:00,65.6,62.6,29.97,South,175,0.0,0.0,90,0.00,,CLR,0.00,VWS V14.01,2013-07-04 11:36:00,
2013-07-04 06:40:00,65.8,62.8,29.96,South,175,0.0,0.0,90,0.00,,CLR,0.00,VWS V14.01,2013-07-04 11:40:00,
2013-07-04 06:41:00,65.5,62.5,29.97,South,175,0.0,0.0,90,0.00,,CLR,0.00,VWS V14.01,2013-07-04 11:41:00,
2013-07-04 06:46:00,65.5,62.5,29.97,South,175,0.0,0.0,90,0.00,,CLR,0.00,VWS V14.01,2013-07-04 11:46:00,
2013-07-04 06:50:00,65.6,62.6,29.97,South,175,0.0,0.0,90,0.00,,CLR,0.00,VWS V14.01,2013-07-04 11:50:00,
2013-07-04 06:51:00,65.3,62.3,29.97,South,175,0.0,0.0,90,0.00,,CLR,0.00,VWS V14.01,2013-07-04 11:51:00,
2013-07-04 06:56:00,65.3,62.3,29.97,South,175,0.0,0.0,90,0.00,,CLR,0.00,VWS V14.01,2013-07-04 11:56:00,
2013-07-04 07:00:00,65.5,62.5,29.97,South,175,0.0,0.0,90,0.00,,CLR,0.00,VWS V14.01,2013-07-04 12:00:00,
2013-07-04 07:01:00,65.1,62.1,29.97,South,175,0.0,0.0,90,0.00,,CLR,0.00,VWS V14.01,2013-07-04 12:01:00,
2013-07-04 07:06:00,65.1,62.1,29.97,South,175,0.0,0.0,90,0.00,,,0.00,VWS V14.01,2013-07-04 12:06:00,
2013-07-04 07:10:00,65.3,62.3,29.97,South,175,0.0,0.0,90,0.00,,CLR,0.00,VWS V14.01,2013-07-04 12:10:00,
2013-07-04 07:11:00,65.0,62.3,29.97,South,175,0.0,0.0,91,0.00,,,0.00,VWS V14.01,2013-07-04 12:11:00,
2013-07-04 07:16:00,65.1,62.4,29.97,South,175,0.0,0.0,91,0.00,,,0.00,VWS V14.01,2013-07-04 12:16:00,
2013-07-04 07:20:00,65.1,62.1,29.97,South,175,0.0,0.0,90,0.00,,CLR,0.00,VWS V14.01,2013-07-04 12:20:00,
2013-07-04 07:21:00,65.1,62.4,29.97,South,175,0.0,0.0,91,0.00,,,0.00,VWS V14.01,2013-07-04 12:21:00,
2013-07-04 07:26:00,65.1,62.4,29.97,South,175,0.0,0.0,91,0.00,,,0.00,VWS V14.01,2013-07-04 12:26:00,
2013-07-04 07:30:00,65.1,62.4,29.97,South,175,0.0,0.0,91,0.00,,CLR,0.00,VWS V14.01,2013-07-04 12:30:00,
2013-07-04 07:31:00,65.3,62.6,29.98,South,175,0.0,0.0,91,0.00,,,0.00,VWS V14.01,2013-07-04 12:31:00,
2013-07-04 07:36:00,65.6,63.2,29.98,South,175,0.0,0.0,92,0.00,,,0.00,VWS V14.01,2013-07-04 12:36:00,
2013-07-04 07:40:00,65.1,62.4,29.97,South,175,0.0,0.0,91,0.00,,CLR,0.00,VWS V14.01,2013-07-04 12:40:00,
2013-07-04 07:41:00,65.9,63.5,29.98,South,175,0.0,0.0,92,0.00,,,0.00,VWS V14.01,2013-07-04 12:41:00,
2013-07-04 07:46:00,66.1,63.7,29.98,South,175,0.0,0.0,92,0.00,,,0.00,VWS V14.01,2013-07-04 12:46:00,
2013-07-04 07:50:00,65.6,63.2,29.98,South,175,0.0,0.0,92,0.00,,CLR,0.00,VWS V14.01,2013-07-04 12:50:00,
2013-07-04 07:51:00,66.3,63.9,29.98,South,175,0.0,0.0,92,0.00,,,0.00,VWS V14.01,2013-07-04 12:51:00,
2013-07-04 07:56:00,66.6,64.2,29.98,South,175,0.0,0.0,92,0.00,,,0.00,VWS V14.01,2013-07-04 12:56:00,
2013-07-04 08:00:00,66.1,63.7,29.98,South,175,0.0,0.0,92,0.00,,CLR,0.00,VWS V14.01,2013-07-04 13:00:00,
2013-07-04 08:01:00,66.9,64.5,29.98,South,175,0.0,0.0,92,0.00,,,0.00,VWS V14.01,2013-07-04 13:01:00,
2013-07-04 08:06:00,67.3,64.9,29.98,South,175,0.0,0.0,92,0.00,,,0.00,VWS V14.01,2013-07-04 13:06:00,
2013-07-04 08:10:00,66.8,64.4,29.98,South,175,0.0,0.0,92,0.00,,CLR,0.00,VWS V14.01,2013-07-04 13:10:00,
2013-07-04 08:11:00,67.6,64.9,29.98,South,175,0.0,0.0,91,0.00,,,0.00,VWS V14.01,2013-07-04 13:11:00,
2013-07-04 08:16:00,67.9,65.2,29.98,South,175,0.0,0.0,91,0.00,,,0.00,VWS V14.01,2013-07-04 13:16:00,
2013-07-04 08:20:00,67.3,64.9,29.98,South,175,0.0,0.0,92,0.00,,CLR,0.00,VWS V14.01,2013-07-04 13:20:00,
2013-07-04 08:21:00,68.4,65.7,29.98,South,175,0.0,0.0,91,0.00,,,0.00,VWS V14.01,2013-07-04 13:21:00,
2013-07-04 08:26:00,68.9,65.8,29.98,South,175,0.0,0.0,90,0.00,,,0.00,VWS V14.01,2013-07-04 13:26:00,
2013-07-04 08:30:00,67.9,65.2,29.98,South,175,0.0,0.0,91,0.00,,CLR,0.00,VWS V14.01,2013-07-04 13:30:00,
2013-07-04 08:31:00,69.8,66.7,29.99,South,175,0.0,0.0,90,0.00,,,0.00,VWS V14.01,2013-07-04 13:31:00,
2013-07-04 08:36:00,70.6,67.2,29.99,South,175,0.0,0.0,89,0.00,,,0.00,VWS V14.01,2013-07-04 13:36:00,
2013-07-04 08:40:00,69.1,66.1,29.98,South,175,0.0,0.0,90,0.00,,CLR,0.00,VWS V14.01,2013-07-04 13:40:00,
2013-07-04 08:41:00,71.3,67.9,29.99,South,175,0.0,0.0,89,0.00,,,0.00,VWS V14.01,2013-07-04 13:41:00,
2013-07-04 08:46:00,72.0,67.9,29.99,South,175,0.0,0.0,87,0.00,,,0.00,VWS V14.01,2013-07-04 13:46:00,
2013-07-04 08:50:00,70.6,67.2,29.99,South,175,0.0,0.0,89,0.00,,CLR,0.00,VWS V14.01,2013-07-04 13:50:00,
2013-07-04 08:51:00,73.0,68.6,29.99,South,175,0.0,0.0,86,0.00,,,0.00,VWS V14.01,2013-07-04 13:51:00,
2013-07-04 08:56:00,73.9,68.8,29.99,South,175,0.0,0.0,84,0.00,,,0.00,VWS V14.01,2013-07-04 13:56:00,
2013-07-04 09:00:00,72.0,67.9,29.99,South,175,0.0,0.0,87,0.00,,CLR,0.00,VWS V14.01,2013-07-04 14:00:00,
2013-07-04 09:01:00,74.4,68.9,30.00,SSE,160,0.0,0.0,83,0.00,,,0.00,VWS V14.01,2013-07-04 14:01:00,
2013-07-04 09:06:00,75.3,69.4,30.00,SSE,160,0.0,0.0,82,0.00,,CLR,0.00,VWS V14.01,2013-07-04 14:06:00,
2013-07-04 09:10:00,73.9,68.8,29.99,SSE,161,0.0,0.0,84,0.00,,CLR,0.00,VWS V14.01,2013-07-04 14:10:00,
2013-07-04 09:11:00,76.0,69.4,30.00,SSE,160,0.0,0.0,80,0.00,,CLR,0.00,VWS V14.01,2013-07-04 14:11:00,
2013-07-04 09:16:00,76.5,69.5,30.00,SSE,159,0.0,0.0,79,0.00,,CLR,0.00,VWS V14.01,2013-07-04 14:16:00,
2013-07-04 09:20:00,75.3,69.4,30.00,SSE,160,0.0,0.0,82,0.00,,CLR,0.00,VWS V14.01,2013-07-04 14:20:00,
2013-07-04 09:21:00,76.9,69.2,30.00,SSE,159,0.0,0.0,77,0.00,,CLR,0.00,VWS V14.01,2013-07-04 14:21:00,
2013-07-04 09:26:00,77.2,69.1,30.00,SSE,159,0.0,0.0,76,0.00,,CLR,0.00,VWS V14.01,2013-07-04 14:26:00,
2013-07-04 09:30:00,76.5,68.8,30.00,SSE,159,0.0,0.0,77,0.00,,CLR,0.00,VWS V14.01,2013-07-04 14:30:00,
2013-07-04 09:31:00,77.6,68.7,29.99,SSE,159,0.0,0.0,74,0.00,,CLR,0.00,VWS V14.01,2013-07-04 14:31:00,
2013-07-04 09:36:00,77.8,68.5,29.99,SSE,159,0.0,0.0,73,0.00,,CLR,0.00,VWS V14.01,2013-07-04 14:36:00,
2013-07-04 09:40:00,77.4,69.2,30.00,SSE,159,0.0,0.0,76,0.00,,CLR,0.00,VWS V14.01,2013-07-04 14:40:00,
2013-07-04 09:41:00,78.3,68.5,29.99,SSE,159,0.0,0.0,72,0.00,,CLR,0.00,VWS V14.01,2013-07-04 14:41:00,
2013-07-04 09:46:00,78.7,68.5,29.99,SSE,159,0.0,0.0,71,0.00,,CLR,0.00,VWS V14.01,2013-07-04 14:46:00,
2013-07-04 09:50:00,77.8,68.5,29.99,SSE,159,0.0,0.0,73,0.00,,CLR,0.00,VWS V14.01,2013-07-04 14:50:00,
2013-07-04 09:52:00,79.3,68.7,29.99,SSE,159,0.0,0.0,70,0.00,,CLR,0.00,VWS V14.01,2013-07-04 14:52:00,
2013-07-04 09:57:00,79.6,68.5,29.99,SSE,159,0.0,0.0,69,0.00,,CLR,0.00,VWS V14.01,2013-07-04 14:57:00,
2013-07-04 10:00:00,78.7,68.1,29.99,SSE,159,0.0,0.0,70,0.00,,CLR,0.00,VWS V14.01,2013-07-04 15:00:00,
2013-07-04 10:02:00,80.0,67.6,29.99,SSE,159,0.0,0.0,66,0.00,,CLR,0.00,VWS V14.01,2013-07-04 15:02:00,
2013-07-04 10:07:00,80.6,67.8,29.99,SSE,157,0.0,0.0,65,0.00,,CLR,0.00,VWS V14.01,2013-07-04 15:07:00,
2013-07-04 10:10:00,79.8,68.7,29.99,SSE,159,0.0,0.0,69,0.00,,CLR,0.00,VWS V14.01,2013-07-04 15:10:00,
2013-07-04 10:12:00,80.7,67.4,29.99,ENE,66,0.0,0.0,64,0.00,,CLR,0.00,VWS V14.01,2013-07-04 15:12:00,
2013-07-04 10:17:00,80.9,67.6,29.99,ENE,66,0.0,0.0,64,0.00,,CLR,0.00,VWS V14.01,2013-07-04 15:17:00,
2013-07-04 10:20:00,80.6,67.8,29.99,SSE,157,0.0,0.0,65,0.00,,CLR,0.00,VWS V14.01,2013-07-04 15:20:00,
2013-07-04 10:22:00,80.9,67.1,29.99,ENE,66,0.0,0.0,63,0.00,,CLR,0.00,VWS V14.01,2013-07-04 15:22:00,
2013-07-04 10:27:00,81.3,68.4,29.99,ENE,66,0.0,0.0,65,0.00,,CLR,0.00,VWS V14.01,2013-07-04 15:27:00,
2013-07-04 10:30:00,80.9,67.6,29.99,ENE,66,0.0,0.0,64,0.00,,CLR,0.00,VWS V14.01,2013-07-04 15:30:00,
2013-07-04 10:31:00,81.7,66.9,29.98,ENE,66,0.0,0.0,61,0.00,,CLR,0.00,VWS V14.01,2013-07-04 15:31:00,
2013-07-04 10:37:00,82.1,66.8,29.98,ENE,66,0.0,0.0,60,0.00,,CLR,0.00,VWS V14.01,2013-07-04 15:37:00,
2013-07-04 10:40:00,81.3,68.4,29.99,ENE,66,0.0,0.0,65,0.00,,CLR,0.00,VWS V14.01,2013-07-04 15:40:00,
2013-07-04 10:42:00,82.3,65.6,29.98,ENE,64,0.0,0.0,57,0.00,,CLR,0.00,VWS V14.01,2013-07-04 15:42:00,
2013-07-04 10:46:00,82.9,65.1,29.99,ENE,64,0.0,0.0,55,0.00,,CLR,0.00,VWS V14.01,2013-07-04 15:46:00,
2013-07-04 10:50:00,82.1,66.8,29.98,ENE,66,0.0,0.0,60,0.00,,CLR,0.00,VWS V14.01,2013-07-04 15:50:00,
2013-07-04 10:52:00,83.3,66.0,29.99,ENE,64,0.0,0.0,56,0.00,,CLR,0.00,VWS V14.01,2013-07-04 15:52:00,
2013-07-04 10:56:00,83.5,66.2,29.99,ENE,64,0.0,0.0,56,0.00,,CLR,0.00,VWS V14.01,2013-07-04 15:56:00,
2013-07-04 11:00:00,82.9,65.1,29.99,ENE,64,0.0,0.0,55,0.00,,CLR,0.00,VWS V14.01,2013-07-04 16:00:00,
2013-07-04 11:01:00,83.8,63.8,29.98,ENE,64,0.0,0.0,51,0.00,,CLR,0.00,VWS V14.01,2013-07-04 16:01:00,
2013-07-04 11:07:00,84.4,64.3,29.98,ENE,64,0.0,0.0,51,0.00,,CLR,0.00,VWS V14.01,2013-07-04 16:07:00,
2013-07-04 11:10:00,83.6,66.3,29.99,ENE,64,0.0,0.0,56,0.00,,CLR,0.00,VWS V14.01,2013-07-04 16:10:00,
2013-07-04 11:12:00,85.0,66.0,29.98,ENE,76,0.0,0.0,53,0.00,,CLR,0.00,VWS V14.01,2013-07-04 16:12:00,
2013-07-04 11:17:00,85.4,64.7,29.98,ENE,76,0.0,0.0,50,0.00,,CLR,0.00,VWS V14.01,2013-07-04 16:17:00,
2013-07-04 11:20:00,84.4,64.3,29.98,ENE,64,0.0,0.0,51,0.00,,CLR,0.00,VWS V14.01,2013-07-04 16:20:00,
2013-07-04 11:22:00,85.8,65.6,29.98,ENE,76,0.0,0.0,51,0.00,,CLR,0.00,VWS V14.01,2013-07-04 16:22:00,
2013-07-04 11:27:00,85.8,65.0,29.98,ENE,76,0.0,0.0,50,0.00,,CLR,0.00,VWS V14.01,2013-07-04 16:27:00,
2013-07-04 11:30:00,85.4,64.7,29.98,ENE,76,0.0,0.0,50,0.00,,CLR,0.00,VWS V14.01,2013-07-04 16:30:00,
2013-07-04 11:32:00,85.8,62.0,29.98,ENE,76,0.0,0.0,45,0.00,,CLR,0.00,VWS V14.01,2013-07-04 16:32:00,
2013-07-04 11:37:00,86.2,63.6,29.98,ENE,76,0.0,0.0,47,0.00,,CLR,0.00,VWS V14.01,2013-07-04 16:37:00,
2013-07-04 11:40:00,85.8,65.0,29.98,ENE,76,0.0,0.0,50,0.00,,CLR,0.00,VWS V14.01,2013-07-04 16:40:00,
2013-07-04 11:42:00,86.7,62.8,29.98,ENE,76,0.0,0.0,45,0.00,,CLR,0.00,VWS V14.01,2013-07-04 16:42:00,
2013-07-04 11:47:00,87.1,63.8,29.98,ENE,76,0.0,0.0,46,0.00,,CLR,0.00,VWS V14.01,2013-07-04 16:47:00,
2013-07-04 11:50:00,86.2,61.8,29.98,ENE,76,0.0,0.0,44,0.00,,CLR,0.00,VWS V14.01,2013-07-04 16:50:00,
2013-07-04 11:52:00,87.1,63.8,29.98,ENE,76,0.0,0.0,46,0.00,,CLR,0.00,VWS V14.01,2013-07-04 16:52:00,
2013-07-04 11:57:00,87.1,65.6,29.98,ENE,76,0.0,0.0,49,0.00,,CLR,0.00,VWS V14.01,2013-07-04 16:57:00,
2013-07-04 12:00:00,87.1,63.8,29.98,ENE,76,0.0,0.0,46,0.00,,CLR,0.00,VWS V14.01,2013-07-04 17:00:00,
2013-07-04 12:02:00,87.3,64.0,29.98,ENE,76,0.0,0.0,46,0.00,,CLR,0.00,VWS V14.01,2013-07-04 17:02:00,
2013-07-04 12:07:00,87.9,65.2,29.98,ENE,76,0.0,0.0,47,0.00,,CLR,0.00,VWS V14.01,2013-07-04 17:07:00,
2013-07-04 12:10:00,87.1,65.6,29.98,ENE,76,0.0,0.0,49,0.00,,CLR,0.00,VWS V14.01,2013-07-04 17:10:00,
2013-07-04 12:12:00,88.1,63.5,29.98,ENE,76,0.0,0.0,44,0.00,,CLR,0.00,VWS V14.01,2013-07-04 17:12:00,
2013-07-04 12:17:00,88.3,62.3,29.98,ENE,76,0.0,0.0,42,0.00,,CLR,0.00,VWS V14.01,2013-07-04 17:17:00,
2013-07-04 12:20:00,87.9,65.2,29.98,ENE,76,0.0,0.0,47,0.00,,CLR,0.00,VWS V14.01,2013-07-04 17:20:00,
2013-07-04 12:22:00,89.0,64.3,29.98,ENE,76,0.0,0.0,44,0.00,,CLR,0.00,VWS V14.01,2013-07-04 17:22:00,
2013-07-04 12:27:00,89.6,64.2,29.98,ENE,76,0.0,0.0,43,0.00,,CLR,0.00,VWS V14.01,2013-07-04 17:27:00,
2013-07-04 12:30:00,88.3,62.3,29.98,ENE,76,0.0,0.0,42,0.00,,CLR,0.00,VWS V14.01,2013-07-04 17:30:00,
2013-07-04 12:32:00,90.2,61.2,29.97,ENE,76,0.0,0.0,38,0.00,,CLR,0.00,VWS V14.01,2013-07-04 17:32:00,
2013-07-04 12:37:00,90.7,61.6,29.97,ENE,69,0.0,0.0,38,0.00,,CLR,0.00,VWS V14.01,2013-07-04 17:37:00,
2013-07-04 12:40:00,89.6,64.2,29.98,ENE,76,0.0,0.0,43,0.00,,CLR,0.00,VWS V14.01,2013-07-04 17:40:00,
2013-07-04 12:42:00,91.1,59.7,29.97,ENE,69,0.0,0.0,35,0.00,,CLR,0.00,VWS V14.01,2013-07-04 17:42:00,
2013-07-04 12:47:00,91.8,64.1,29.97,ENE,69,0.0,0.0,40,0.00,,CLR,0.00,VWS V14.01,2013-07-04 17:47:00,
2013-07-04 12:50:00,90.7,61.6,29.97,ENE,69,0.0,0.0,38,0.00,,CLR,0.00,VWS V14.01,2013-07-04 17:50:00,
2013-07-04 12:52:00,92.0,64.9,29.97,ENE,69,0.0,0.0,41,0.00,,CLR,0.00,VWS V14.01,2013-07-04 17:52:00,
2013-07-04 12:57:00,92.0,64.2,29.97,ENE,69,0.0,0.0,40,0.00,,CLR,0.00,VWS V14.01,2013-07-04 17:57:00,
2013-07-04 13:00:00,91.8,64.1,29.97,ENE,69,0.0,0.0,40,0.00,,CLR,0.00,VWS V14.01,2013-07-04 18:00:00,
2013-07-04 13:02:00,92.0,61.2,29.96,ENE,69,0.0,0.0,36,0.00,,CLR,0.00,VWS V14.01,2013-07-04 18:02:00,
2013-07-04 13:07:00,91.8,61.1,29.96,ENE,69,0.0,0.0,36,0.00,,CLR,0.00,VWS V14.01,2013-07-04 18:07:00,
2013-07-04 13:10:00,92.0,64.2,29.97,ENE,69,0.0,0.0,40,0.00,,CLR,0.00,VWS V14.01,2013-07-04 18:10:00,
2013-07-04 13:12:00,91.8,62.6,29.96,ENE,69,0.0,0.0,38,0.00,,CLR,0.00,VWS V14.01,2013-07-04 18:12:00,
2013-07-04 13:17:00,91.3,59.8,29.96,ENE,69,0.0,0.0,35,0.00,,CLR,0.00,VWS V14.01,2013-07-04 18:17:00,
2013-07-04 13:20:00,91.8,61.1,29.96,ENE,69,0.0,0.0,36,0.00,,CLR,0.00,VWS V14.01,2013-07-04 18:20:00,
2013-07-04 13:22:00,91.1,62.7,29.96,SW,232,0.0,0.0,39,0.00,,CLR,0.00,VWS V14.01,2013-07-04 18:22:00,
2013-07-04 13:27:00,91.1,59.7,29.96,NW,325,0.0,0.0,35,0.00,,CLR,0.00,VWS V14.01,2013-07-04 18:27:00,
2013-07-04 13:30:00,91.3,59.8,29.96,ENE,69,0.0,0.0,35,0.00,,CLR,0.00,VWS V14.01,2013-07-04 18:30:00,
2013-07-04 13:32:00,91.6,64.6,29.95,NW,325,0.0,0.0,41,0.00,,CLR,0.00,VWS V14.01,2013-07-04 18:32:00,
2013-07-04 13:37:00,91.8,61.8,29.95,NW,325,0.0,0.0,37,0.00,,CLR,0.00,VWS V14.01,2013-07-04 18:37:00,
2013-07-04 13:40:00,91.1,59.7,29.96,NW,325,0.0,0.0,35,0.00,,CLR,0.00,VWS V14.01,2013-07-04 18:40:00,
2013-07-04 13:42:00,92.0,58.8,29.95,NW,325,0.0,0.0,33,0.00,,CLR,0.00,VWS V14.01,2013-07-04 18:42:00,
2013-07-04 13:47:00,92.0,56.2,29.95,NW,325,0.0,0.0,30,0.00,,CLR,0.00,VWS V14.01,2013-07-04 18:47:00,
2013-07-04 13:50:00,91.8,61.8,29.95,NW,325,0.0,0.0,37,0.00,,CLR,0.00,VWS V14.01,2013-07-04 18:50:00,
2013-07-04 13:52:00,92.0,56.2,29.95,NW,325,0.0,0.0,30,0.00,,CLR,0.00,VWS V14.01,2013-07-04 18:52:00,
2013-07-04 13:57:00,91.8,56.0,29.95,NW,325,0.0,0.0,30,0.00,,CLR,0.00,VWS V14.01,2013-07-04 18:57:00,
2013-07-04 14:00:00,92.0,56.2,29.95,NW,325,0.0,0.0,30,0.00,,CLR,0.00,VWS V14.01,2013-07-04 19:00:00,
2013-07-04 14:02:00,91.8,56.9,29.94,NW,325,0.0,0.0,31,0.00,,CLR,0.00,VWS V14.01,2013-07-04 19:02:00,
2013-07-04 14:07:00,91.8,60.3,29.94,NW,325,0.0,0.0,35,0.00,,CLR,0.00,VWS V14.01,2013-07-04 19:07:00,
2013-07-04 14:10:00,91.8,57.8,29.95,NW,325,0.0,0.0,32,0.00,,CLR,0.00,VWS V14.01,2013-07-04 19:10:00,
2013-07-04 14:12:00,91.6,61.7,29.94,NW,325,0.0,0.0,37,0.00,,CLR,0.00,VWS V14.01,2013-07-04 19:12:00,
2013-07-04 14:17:00,91.8,56.0,29.93,NW,325,0.0,0.0,30,0.00,,CLR,0.00,VWS V14.01,2013-07-04 19:17:00,
2013-07-04 14:20:00,91.8,60.3,29.94,NW,325,0.0,0.0,35,0.00,,CLR,0.00,VWS V14.01,2013-07-04 19:20:00,
2013-07-04 14:22:00,91.8,60.3,29.93,NW,325,0.0,0.0,35,0.00,,CLR,0.00,VWS V14.01,2013-07-04 19:22:00,
2013-07-04 14:27:00,92.0,59.6,29.93,NW,325,0.0,0.0,34,0.00,,CLR,0.00,VWS V14.01,2013-07-04 19:27:00,
2013-07-04 14:30:00,91.8,56.0,29.93,NW,325,0.0,0.0,30,0.00,,CLR,0.00,VWS V14.01,2013-07-04 19:30:00,
2013-07-04 14:32:00,92.2,60.6,29.93,NW,315,0.0,0.0,35,0.00,,CLR,0.00,VWS V14.01,2013-07-04 19:32:00,
2013-07-04 14:37:00,92.7,58.5,29.93,NW,315,0.0,0.0,32,0.00,,CLR,0.00,VWS V14.01,2013-07-04 19:37:00,
2013-07-04 14:40:00,92.0,59.6,29.93,NW,325,0.0,0.0,34,0.00,,CLR,0.00,VWS V14.01,2013-07-04 19:40:00,
2013-07-04 14:42:00,92.7,57.7,29.93,NW,316,0.0,0.0,31,0.00,,CLR,0.00,VWS V14.01,2013-07-04 19:42:00,
2013-07-04 14:47:00,92.7,56.8,29.92,NW,316,0.0,0.0,30,0.00,,CLR,0.00,VWS V14.01,2013-07-04 19:47:00,
2013-07-04 14:50:00,92.7,58.5,29.93,NW,315,0.0,0.0,32,0.00,,CLR,0.00,VWS V14.01,2013-07-04 19:50:00,
2013-07-04 14:52:00,92.2,54.4,29.92,NW,316,0.0,0.0,28,0.00,,CLR,0.00,VWS V14.01,2013-07-04 19:52:00,
2013-07-04 14:57:00,92.0,56.2,29.92,NW,316,0.0,0.0,30,0.00,,CLR,0.00,VWS V14.01,2013-07-04 19:57:00,
2013-07-04 15:00:00,92.7,56.8,29.92,NW,316,0.0,0.0,30,0.00,,CLR,0.00,VWS V14.01,2013-07-04 20:00:00,
2013-07-04 15:02:00,92.0,55.2,29.92,NW,316,0.0,0.0,29,0.00,,CLR,0.00,VWS V14.01,2013-07-04 20:02:00,
2013-07-04 15:07:00,92.2,62.2,29.92,NW,316,0.0,0.0,37,0.00,,CLR,0.00,VWS V14.01,2013-07-04 20:07:00,
2013-07-04 15:10:00,92.0,56.2,29.92,NW,316,0.0,0.0,30,0.00,,CLR,0.00,VWS V14.01,2013-07-04 20:10:00,
2013-07-04 15:12:00,92.4,56.5,29.92,NW,316,0.0,0.0,30,0.00,,CLR,0.00,VWS V14.01,2013-07-04 20:12:00,
2013-07-04 15:17:00,92.4,53.6,29.91,NW,316,0.0,0.0,27,0.00,,CLR,0.00,VWS V14.01,2013-07-04 20:17:00,
2013-07-04 15:20:00,92.2,59.0,29.92,NW,316,0.0,0.0,33,0.00,,CLR,0.00,VWS V14.01,2013-07-04 20:20:00,
2013-07-04 15:22:00,92.4,50.4,29.91,NW,315,0.0,0.0,24,0.00,,CLR,0.00,VWS V14.01,2013-07-04 20:22:00,
2013-07-04 15:27:00,92.4,54.6,29.91,NW,315,0.0,0.0,28,0.00,,CLR,0.00,VWS V14.01,2013-07-04 20:27:00,
2013-07-04 15:30:00,92.4,53.6,29.91,NW,316,0.0,0.0,27,0.00,,CLR,0.00,VWS V14.01,2013-07-04 20:30:00,
2013-07-04 15:32:00,92.7,54.8,29.91,NW,315,0.0,0.0,28,0.00,,CLR,0.00,VWS V14.01,2013-07-04 20:32:00,
2013-07-04 15:37:00,92.7,50.7,29.91,WNW,301,0.0,0.0,24,0.00,,CLR,0.00,VWS V14.01,2013-07-04 20:37:00,
2013-07-04 15:40:00,92.4,54.6,29.91,NW,315,0.0,0.0,28,0.00,,CLR,0.00,VWS V14.01,2013-07-04 20:40:00,
2013-07-04 15:42:00,92.9,51.9,29.91,WNW,301,0.0,0.0,25,0.00,,CLR,0.00,VWS V14.01,2013-07-04 20:42:00,
2013-07-04 15:47:00,92.9,55.0,29.90,WNW,301,0.0,0.0,28,0.00,,CLR,0.00,VWS V14.01,2013-07-04 20:47:00,
2013-07-04 15:50:00,92.7,53.9,29.91,WNW,301,0.0,0.0,27,0.00,,CLR,0.00,VWS V14.01,2013-07-04 20:50:00,
2013-07-04 15:52:00,92.9,56.9,29.90,WNW,301,0.0,0.0,30,0.00,,CLR,0.00,VWS V14.01,2013-07-04 20:52:00,
2013-07-04 15:57:00,92.4,57.4,29.90,WNW,301,0.0,0.0,31,0.00,,CLR,0.00,VWS V14.01,2013-07-04 20:57:00,
2013-07-04 16:00:00,92.9,55.0,29.90,WNW,301,0.0,0.0,28,0.00,,CLR,0.00,VWS V14.01,2013-07-04 21:00:00,
2013-07-04 16:02:00,92.0,58.8,29.90,WNW,301,0.0,0.0,33,0.00,,CLR,0.00,VWS V14.01,2013-07-04 21:02:00,
2013-07-04 16:07:00,91.8,57.8,29.90,WNW,301,0.0,0.0,32,0.00,,SCT050,0.00,VWS V14.01,2013-07-04 21:07:00,
2013-07-04 16:10:00,92.4,57.4,29.90,WNW,301,0.0,0.0,31,0.00,,CLR,0.00,VWS V14.01,2013-07-04 21:10:00,
2013-07-04 16:12:00,91.6,54.9,29.90,WNW,301,0.0,0.0,29,0.00,,SCT050,0.00,VWS V14.01,2013-07-04 21:12:00,
2013-07-04 16:17:00,92.0,53.3,29.89,WNW,301,0.0,0.0,27,0.00,,SCT050,0.00,VWS V14.01,2013-07-04 21:17:00,
2013-07-04 16:20:00,91.8,57.8,29.90,WNW,301,0.0,0.0,32,0.00,,CLR,0.00,VWS V14.01,2013-07-04 21:20:00,
2013-07-04 16:22:00,92.0,54.3,29.89,WNW,301,0.0,0.0,28,0.00,,SCT050,0.00,VWS V14.01,2013-07-04 21:22:00,
2013-07-04 16:27:00,91.6,56.7,29.89,WNW,302,0.0,0.0,31,0.00,,SCT050,0.00,VWS V14.01,2013-07-04 21:27:00,
2013-07-04 16:30:00,92.0,51.2,29.89,WNW,301,0.0,0.0,25,0.00,,CLR,0.00,VWS V14.01,2013-07-04 21:30:00,
2013-07-04 16:32:00,91.3,53.7,29.89,WNW,302,0.0,0.0,28,0.00,,SCT050,0.00,VWS V14.01,2013-07-04 21:32:00,
2013-07-04 16:37:00,91.3,50.6,29.89,WNW,302,0.0,0.0,25,0.00,,SCT050,0.00,VWS V14.01,2013-07-04 21:37:00,
2013-07-04 16:40:00,91.6,56.7,29.89,WNW,302,0.0,0.0,31,0.00,,CLR,0.00,VWS V14.01,2013-07-04 21:40:00,
2013-07-04 16:42:00,91.3,52.7,29.89,NNW,340,0.0,0.0,27,0.00,,SCT050,0.00,VWS V14.01,2013-07-04 21:42:00,
2013-07-04 16:47:00,91.3,49.5,29.89,NNW,340,0.0,0.0,24,0.00,,SCT050,0.00,VWS V14.01,2013-07-04 21:47:00,
2013-07-04 16:50:00,91.3,50.6,29.89,WNW,302,0.0,0.0,25,0.00,,CLR,0.00,VWS V14.01,2013-07-04 21:50:00,
2013-07-04 16:52:00,91.3,54.6,29.89,NNW,340,0.0,0.0,29,0.00,,SCT050,0.00,VWS V14.01,2013-07-04 21:52:00,
2013-07-04 16:57:00,90.9,57.0,29.89,NNW,340,0.0,0.0,32,0.00,,SCT050,0.00,VWS V14.01,2013-07-04 21:57:00,
2013-07-04 17:00:00,91.3,51.7,29.89,NNW,340,0.0,0.0,26,0.00,,CLR,0.00,VWS V14.01,2013-07-04 22:00:00,
2013-07-04 17:02:00,90.0,58.7,29.89,NNW,340,0.0,0.0,35,0.00,,SCT050,0.00,VWS V14.01,2013-07-04 22:02:00,
2013-07-04 17:07:00,89.6,58.3,29.89,NNW,340,0.0,0.0,35,0.00,,SCT050,0.00,VWS V14.01,2013-07-04 22:07:00,
2013-07-04 17:10:00,90.9,57.0,29.89,NNW,340,0.0,0.0,32,0.00,,CLR,0.00,VWS V14.01,2013-07-04 22:10:00,
2013-07-04 17:12:00,89.6,53.2,29.89,NNW,340,0.0,0.0,29,0.00,,SCT050,0.00,VWS V14.01,2013-07-04 22:12:00,
2013-07-04 17:17:00,89.8,51.4,29.88,NNW,340,0.0,0.0,27,0.00,,SCT050,0.00,VWS V14.01,2013-07-04 22:17:00,
2013-07-04 17:20:00,89.6,58.3,29.89,NNW,340,0.0,0.0,35,0.00,,CLR,0.00,VWS V14.01,2013-07-04 22:20:00,
2013-07-04 17:22:00,90.2,48.6,29.88,NNW,340,0.0,0.0,24,0.00,,SCT050,0.00,VWS V14.01,2013-07-04 22:22:00,
2013-07-04 17:27:00,90.5,58.3,29.88,NNW,340,0.0,0.0,34,0.00,,SCT050,0.00,VWS V14.01,2013-07-04 22:27:00,
2013-07-04 17:30:00,89.8,51.4,29.88,NNW,340,0.0,0.0,27,0.00,,CLR,0.00,VWS V14.01,2013-07-04 22:30:00,
2013-07-04 17:32:00,90.7,50.1,29.87,NNW,340,0.0,0.0,25,0.00,,SCT050,0.00,VWS V14.01,2013-07-04 22:32:00,
2013-07-04 17:37:00,90.9,52.3,29.87,NNW,340,0.0,0.0,27,0.00,,SCT050,0.00,VWS V14.01,2013-07-04 22:37:00,
2013-07-04 17:40:00,90.5,54.9,29.88,NNW,340,0.0,0.0,30,0.00,,CLR,0.00,VWS V14.01,2013-07-04 22:40:00,
2013-07-04 17:42:00,90.7,49.0,29.87,NNW,340,0.0,0.0,24,0.00,,SCT050,0.00,VWS V14.01,2013-07-04 22:42:00,
2013-07-04 17:47:00,90.9,57.8,29.87,NNW,340,0.0,0.0,33,0.00,,SCT050,0.00,VWS V14.01,2013-07-04 22:47:00,
2013-07-04 17:50:00,90.9,52.3,29.87,NNW,340,0.0,0.0,27,0.00,,CLR,0.00,VWS V14.01,2013-07-04 22:50:00,
2013-07-04 17:52:00,90.7,57.7,29.87,NNW,340,0.0,0.0,33,0.00,,SCT050,0.00,VWS V14.01,2013-07-04 22:52:00,
2013-07-04 17:57:00,90.5,58.3,29.87,NNW,340,0.0,0.0,34,0.00,,SCT050,0.00,VWS V14.01,2013-07-04 22:57:00,
2013-07-04 18:00:00,90.9,57.8,29.87,NNW,340,0.0,0.0,33,0.00,,CLR,0.00,VWS V14.01,2013-07-04 23:00:00,
2013-07-04 18:02:00,90.2,57.2,29.87,NNW,340,0.0,0.0,33,0.00,,SCT050,0.00,VWS V14.01,2013-07-04 23:02:00,
2013-07-04 18:07:00,89.6,57.5,29.87,NNW,340,0.0,0.0,34,0.00,,FEW095,0.00,VWS V14.01,2013-07-04 23:07:00,
2013-07-04 18:10:00,90.5,55.8,29.87,NNW,340,0.0,0.0,31,0.00,,CLR,0.00,VWS V14.01,2013-07-04 23:10:00,
2013-07-04 18:12:00,89.0,56.2,29.87,NNW,340,0.0,0.0,33,0.00,,FEW095,0.00,VWS V14.01,2013-07-04 23:12:00,
2013-07-04 18:17:00,88.5,58.2,29.87,NNW,340,0.0,0.0,36,0.00,,FEW095,0.00,VWS V14.01,2013-07-04 23:17:00,
2013-07-04 18:20:00,89.6,57.5,29.87,NNW,340,0.0,0.0,34,0.00,,CLR,0.00,VWS V14.01,2013-07-04 23:20:00,
2013-07-04 18:22:00,88.1,58.6,29.87,NNW,340,0.0,0.0,37,0.00,,FEW095,0.00,VWS V14.01,2013-07-04 23:22:00,
2013-07-04 18:27:00,87.7,59.0,29.87,NNW,340,0.0,0.0,38,0.00,,FEW095,0.00,VWS V14.01,2013-07-04 23:27:00,
2013-07-04 18:30:00,88.5,58.2,29.87,NNW,340,0.0,0.0,36,0.00,,CLR,0.00,VWS V14.01,2013-07-04 23:30:00,
2013-07-04 18:32:00,87.3,58.6,29.87,NNW,340,0.0,0.0,38,0.00,,FEW095,0.00,VWS V14.01,2013-07-04 23:32:00,
2013-07-04 18:37:00,86.9,60.4,29.87,NNW,340,0.0,0.0,41,0.00,,FEW095,0.00,VWS V14.01,2013-07-04 23:37:00,
2013-07-04 18:40:00,87.7,59.0,29.87,NNW,340,0.0,0.0,38,0.00,,CLR,0.00,VWS V14.01,2013-07-04 23:40:00,
2013-07-04 18:42:00,86.5,61.4,29.87,NNW,340,0.0,0.0,43,0.00,,FEW095,0.00,VWS V14.01,2013-07-04 23:42:00,
2013-07-04 18:47:00,86.2,60.4,29.87,NNW,340,0.0,0.0,42,0.00,,FEW095,0.00,VWS V14.01,2013-07-04 23:47:00,
2013-07-04 18:50:00,86.9,59.0,29.87,NNW,340,0.0,0.0,39,0.00,,CLR,0.00,VWS V14.01,2013-07-04 23:50:00,
2013-07-04 18:52:00,86.2,62.4,29.87,NNW,340,0.0,0.0,45,0.00,,FEW095,0.00,VWS V14.01,2013-07-04 23:52:00,
2013-07-04 18:57:00,86.0,62.8,29.87,NNW,340,0.0,0.0,46,0.00,,FEW095,0.00,VWS V14.01,2013-07-04 23:57:00,
2013-07-04 19:00:00,86.2,60.4,29.87,NNW,340,0.0,0.0,42,0.00,,CLR,0.00,VWS V14.01,2013-07-05 00:00:00,
2013-07-04 19:02:00,85.8,63.3,29.87,NNW,340,0.0,0.0,47,0.00,,FEW095,0.00,VWS V14.01,2013-07-05 00:02:00,
2013-07-04 19:07:00,85.6,61.8,29.87,NNW,340,0.0,0.0,45,0.00,,FEW100,0.00,VWS V14.01,2013-07-05 00:07:00,
2013-07-04 19:10:00,86.0,62.8,29.87,NNW,340,0.0,0.0,46,0.00,,CLR,0.00,VWS V14.01,2013-07-05 00:10:00,
2013-07-04 19:12:00,85.4,62.3,29.87,NNW,340,0.0,0.0,46,0.00,,FEW100,0.00,VWS V14.01,2013-07-05 00:12:00,
2013-07-04 19:17:00,85.2,62.7,29.87,NNW,340,0.0,0.0,47,0.00,,FEW100,0.00,VWS V14.01,2013-07-05 00:17:00,
2013-07-04 19:20:00,85.6,62.5,29.87,NNW,340,0.0,0.0,46,0.00,,CLR,0.00,VWS V14.01,2013-07-05 00:20:00,
2013-07-04 19:22:00,85.2,63.3,29.87,NNW,340,0.0,0.0,48,0.00,,FEW100,0.00,VWS V14.01,2013-07-05 00:22:00,
2013-07-04 19:27:00,84.8,60.5,29.87,NNW,340,0.0,0.0,44,0.00,,FEW100,0.00,VWS V14.01,2013-07-05 00:27:00,
2013-07-04 19:30:00,85.2,62.7,29.87,NNW,340,0.0,0.0,47,0.00,,CLR,0.00,VWS V14.01,2013-07-05 00:30:00,
2013-07-04 19:32:00,84.8,60.5,29.87,NNW,340,0.0,0.0,44,0.00,,FEW100,0.00,VWS V14.01,2013-07-05 00:32:00,
2013-07-04 19:37:00,84.6,62.8,29.87,NNW,340,0.0,0.0,48,0.00,,FEW100,0.00,VWS V14.01,2013-07-05 00:37:00,
2013-07-04 19:40:00,85.0,60.7,29.87,NNW,340,0.0,0.0,44,0.00,,CLR,0.00,VWS V14.01,2013-07-05 00:40:00,
2013-07-04 19:42:00,84.4,62.0,29.87,NNW,340,0.0,0.0,47,0.00,,FEW100,0.00,VWS V14.01,2013-07-05 00:42:00,
2013-07-04 19:47:00,84.2,61.8,29.87,NNW,340,0.0,0.0,47,0.00,,FEW100,0.00,VWS V14.01,2013-07-05 00:47:00,
2013-07-04 19:50:00,84.6,62.8,29.87,NNW,340,0.0,0.0,48,0.00,,CLR,0.00,VWS V14.01,2013-07-05 00:50:00,
2013-07-04 19:52:00,83.8,62.0,29.87,NNW,340,0.0,0.0,48,0.00,,FEW100,0.00,VWS V14.01,2013-07-05 00:52:00,
2013-07-04 19:57:00,83.6,62.4,29.87,NNW,340,0.0,0.0,49,0.00,,FEW100,0.00,VWS V14.01,2013-07-05 00:57:00,
2013-07-04 20:00:00,84.2,61.8,29.87,NNW,340,0.0,0.0,47,0.00,,CLR,0.00,VWS V14.01,2013-07-05 01:00:00,
2013-07-04 20:02:00,83.5,62.9,29.87,NNW,340,0.0,0.0,50,0.00,,CLR,0.00,VWS V14.01,2013-07-05 01:02:00,
2013-07-04 20:07:00,83.1,62.0,29.87,NNW,340,0.0,0.0,49,0.00,,CLR,0.00,VWS V14.01,2013-07-05 01:07:00,
2013-07-04 20:10:00,83.6,62.4,29.87,NNW,340,0.0,0.0,49,0.00,,CLR,0.00,VWS V14.01,2013-07-05 01:10:00,
2013-07-04 20:12:00,82.7,61.6,29.87,NNW,340,0.0,0.0,49,0.00,,CLR,0.00,VWS V14.01,2013-07-05 01:12:00,
2013-07-04 20:17:00,82.5,60.8,29.87,NNW,340,0.0,0.0,48,0.00,,CLR,0.00,VWS V14.01,2013-07-05 01:17:00,
2013-07-04 20:20:00,83.1,62.0,29.87,NNW,340,0.0,0.0,49,0.00,,CLR,0.00,VWS V14.01,2013-07-05 01:20:00,
2013-07-04 20:22:00,82.3,62.9,29.87,NNW,340,0.0,0.0,52,0.00,,CLR,0.00,VWS V14.01,2013-07-05 01:22:00,
2013-07-04 20:27:00,82.1,61.6,29.87,NNW,340,0.0,0.0,50,0.00,,CLR,0.00,VWS V14.01,2013-07-05 01:27:00,
2013-07-04 20:30:00,82.5,60.8,29.87,NNW,340,0.0,0.0,48,0.00,,CLR,0.00,VWS V14.01,2013-07-05 01:30:00,
2013-07-04 20:32:00,82.1,62.8,29.88,NNW,340,0.0,0.0,52,0.00,,CLR,0.00,VWS V14.01,2013-07-05 01:32:00,
2013-07-04 20:37:00,81.9,60.3,29.88,NNW,340,0.0,0.0,48,0.00,,CLR,0.00,VWS V14.01,2013-07-05 01:37:00,
2013-07-04 20:40:00,82.1,61.6,29.87,NNW,340,0.0,0.0,50,0.00,,CLR,0.00,VWS V14.01,2013-07-05 01:40:00,
2013-07-04 20:42:00,81.9,60.3,29.88,NNW,340,0.0,0.0,48,0.00,,CLR,0.00,VWS V14.01,2013-07-05 01:42:00,
2013-07-04 20:47:00,81.9,61.5,29.89,NNW,340,0.0,0.0,50,0.00,,CLR,0.00,VWS V14.01,2013-07-05 01:47:00,
2013-07-04 20:50:00,81.9,60.3,29.88,NNW,340,0.0,0.0,48,0.00,,CLR,0.00,VWS V14.01,2013-07-05 01:50:00,
2013-07-04 20:52:00,81.9,60.9,29.89,NNW,340,0.0,0.0,49,0.00,,CLR,0.00,VWS V14.01,2013-07-05 01:52:00,
2013-07-04 20:57:00,81.9,60.9,29.89,NNW,340,0.0,0.0,49,0.00,,CLR,0.00,VWS V14.01,2013-07-05 01:57:00,
2013-07-04 21:00:00,81.9,61.5,29.89,NNW,340,0.0,0.0,50,0.00,,CLR,0.00,VWS V14.01,2013-07-05 02:00:00,
2013-07-04 21:02:00,81.9,61.5,29.89,NNW,340,0.0,0.0,50,0.00,,CLR,0.00,VWS V14.01,2013-07-05 02:02:00,
2013-07-04 21:07:00,81.9,60.9,29.89,NNW,340,0.0,0.0,49,0.00,,FEW095,0.00,VWS V14.01,2013-07-05 02:07:00,
2013-07-04 21:10:00,81.9,61.5,29.89,NNW,340,0.0,0.0,50,0.00,,CLR,0.00,VWS V14.01,2013-07-05 02:10:00,
2013-07-04 21:12:00,81.9,60.3,29.89,NNW,340,0.0,0.0,48,0.00,,FEW095,0.00,VWS V14.01,2013-07-05 02:12:00,
2013-07-04 21:17:00,81.9,60.9,29.89,NNW,340,0.0,0.0,49,0.00,,FEW095,0.00,VWS V14.01,2013-07-05 02:17:00,
2013-07-04 21:20:00,81.9,60.9,29.89,NNW,340,0.0,0.0,49,0.00,,CLR,0.00,VWS V14.01,2013-07-05 02:20:00,
2013-07-04 21:22:00,81.9,60.9,29.89,NNW,340,0.0,0.0,49,0.00,,FEW095,0.00,VWS V14.01,2013-07-05 02:22:00,
2013-07-04 21:27:00,81.7,60.7,29.89,NNW,340,0.0,0.0,49,0.00,,FEW095,0.00,VWS V14.01,2013-07-05 02:27:00,
2013-07-04 21:30:00,81.9,60.9,29.89,NNW,340,0.0,0.0,49,0.00,,CLR,0.00,VWS V14.01,2013-07-05 02:30:00,
2013-07-04 21:32:00,81.7,60.7,29.89,NNW,340,0.0,0.0,49,0.00,,FEW095,0.00,VWS V14.01,2013-07-05 02:32:00,
2013-07-04 21:37:00,81.9,61.5,29.89,NNW,340,0.0,0.0,50,0.00,,FEW095,0.00,VWS V14.01,2013-07-05 02:37:00,
2013-07-04 21:40:00,81.7,61.3,29.89,NNW,340,0.0,0.0,50,0.00,,CLR,0.00,VWS V14.01,2013-07-05 02:40:00,
2013-07-04 21:42:00,82.1,61.1,29.89,NNW,340,0.0,0.0,49,0.00,,FEW095,0.00,VWS V14.01,2013-07-05 02:42:00,
2013-07-04 21:47:00,82.3,60.1,29.90,NNW,340,0.0,0.0,47,0.00,,FEW095,0.00,VWS V14.01,2013-07-05 02:47:00,
2013-07-04 21:50:00,81.7,61.3,29.89,NNW,340,0.0,0.0,50,0.00,,CLR,0.00,VWS V14.01,2013-07-05 02:50:00,
2013-07-04 21:52:00,82.5,61.4,29.90,NNW,340,0.0,0.0,49,0.00,,FEW095,0.00,VWS V14.01,2013-07-05 02:52:00,
2013-07-04 21:57:00,82.5,60.3,29.90,NNW,340,0.0,0.0,47,0.00,,FEW095,0.00,VWS V14.01,2013-07-05 02:57:00,
2013-07-04 22:00:00,82.3,60.1,29.90,NNW,340,0.0,0.0,47,0.00,,CLR,0.00,VWS V14.01,2013-07-05 03:00:00,
2013-07-04 22:02:00,82.5,61.4,29.91,NNW,340,0.0,0.0,49,0.00,,SCT095,0.00,VWS V14.01,2013-07-05 03:02:00,
2013-07-04 22:07:00,82.5,61.4,29.91,NNW,340,0.0,0.0,49,0.00,,SCT095,0.00,VWS V14.01,2013-07-05 03:07:00,
2013-07-04 22:10:00,82.5,61.4,29.90,NNW,340,0.0,0.0,49,0.00,,CLR,0.00,VWS V14.01,2013-07-05 03:10:00,
2013-07-04 22:12:00,82.3,61.2,29.91,NNW,340,0.0,0.0,49,0.00,,SCT095,0.00,VWS V14.01,2013-07-05 03:12:00,
2013-07-04 22:17:00,82.1,60.5,29.92,NNW,340,0.0,0.0,48,0.00,,SCT095,0.00,VWS V14.01,2013-07-05 03:17:00,
2013-07-04 22:20:00,82.5,61.4,29.91,NNW,340,0.0,0.0,49,0.00,,CLR,0.00,VWS V14.01,2013-07-05 03:20:00,
2013-07-04 22:22:00,82.1,60.5,29.92,NNW,340,0.0,0.0,48,0.00,,SCT095,0.00,VWS V14.01,2013-07-05 03:22:00,
2013-07-04 22:27:00,82.1,59.9,29.92,NNW,340,0.0,0.0,47,0.00,,SCT095,0.00,VWS V14.01,2013-07-05 03:27:00,
2013-07-04 22:30:00,82.1,60.5,29.92,NNW,340,0.0,0.0,48,0.00,,CLR,0.00,VWS V14.01,2013-07-05 03:30:00,
2013-07-04 22:32:00,82.1,59.9,29.92,NNW,340,0.0,0.0,47,0.00,,SCT095,0.00,VWS V14.01,2013-07-05 03:32:00,
2013-07-04 22:37:00,82.1,60.5,29.92,NNW,340,0.0,0.0,48,0.00,,SCT095,0.00,VWS V14.01,2013-07-05 03:37:00,
2013-07-04 22:40:00,82.1,59.9,29.92,NNW,340,0.0,0.0,47,0.00,,CLR,0.00,VWS V14.01,2013-07-05 03:40:00,
2013-07-04 22:42:00,82.1,59.9,29.92,NNW,340,0.0,0.0,47,0.00,,SCT095,0.00,VWS V14.01,2013-07-05 03:42:00,
2013-07-04 22:47:00,81.9,59.7,29.92,NNW,340,0.0,0.0,47,0.00,,SCT095,0.00,VWS V14.01,2013-07-05 03:47:00,
2013-07-04 22:50:00,82.1,59.9,29.92,NNW,340,0.0,0.0,47,0.00,,CLR,0.00,VWS V14.01,2013-07-05 03:50:00,
2013-07-04 22:52:00,81.7,60.7,29.92,NNW,340,0.0,0.0,49,0.00,,SCT095,0.00,VWS V14.01,2013-07-05 03:52:00,
2013-07-04 22:57:00,81.5,60.5,29.92,NNW,340,0.0,0.0,49,0.00,,SCT095,0.00,VWS V14.01,2013-07-05 03:57:00,
2013-07-04 23:00:00,81.9,59.7,29.92,NNW,340,0.0,0.0,47,0.00,,CLR,0.00,VWS V14.01,2013-07-05 04:00:00,
2013-07-04 23:01:00,81.3,60.3,29.92,NNW,340,0.0,0.0,49,0.00,,SCT095,0.00,VWS V14.01,2013-07-05 04:01:00,
2013-07-04 23:06:00,81.1,60.2,29.93,NNW,332,0.0,0.0,49,0.00,,CLR,0.00,VWS V14.01,2013-07-05 04:06:00,
2013-07-04 23:10:00,81.5,60.5,29.92,NNW,340,0.0,0.0,49,0.00,,CLR,0.00,VWS V14.01,2013-07-05 04:10:00,
2013-07-04 23:11:00,80.7,60.9,29.93,NNW,332,0.0,0.0,51,0.00,,CLR,0.00,VWS V14.01,2013-07-05 04:11:00,
2013-07-04 23:16:00,80.7,60.9,29.94,NNW,332,0.0,0.0,51,0.00,,CLR,0.00,VWS V14.01,2013-07-05 04:16:00,
2013-07-04 23:20:00,80.9,60.0,29.93,NNW,332,0.0,0.0,49,0.00,,CLR,0.00,VWS V14.01,2013-07-05 04:20:00,
2013-07-04 23:21:00,80.6,61.9,29.94,NNW,332,0.0,0.0,53,0.00,,CLR,0.00,VWS V14.01,2013-07-05 04:21:00,
2013-07-04 23:26:00,80.2,61.5,29.94,NNW,332,0.0,0.0,53,0.00,,CLR,0.00,VWS V14.01,2013-07-05 04:26:00,
2013-07-04 23:30:00,80.6,61.4,29.94,NNW,332,0.0,0.0,52,0.00,,CLR,0.00,VWS V14.01,2013-07-05 04:30:00,
2013-07-04 23:31:00,80.0,61.9,29.95,NNW,332,0.0,0.0,54,0.00,,CLR,0.00,VWS V14.01,2013-07-05 04:31:00,
2013-07-04 23:36:00,79.8,62.2,29.95,NNW,332,0.0,0.0,55,0.00,,CLR,0.00,VWS V14.01,2013-07-05 04:36:00,
2013-07-04 23:40:00,80.2,61.5,29.94,NNW,332,0.0,0.0,53,0.00,,CLR,0.00,VWS V14.01,2013-07-05 04:40:00,
2013-07-04 23:41:00,79.6,62.0,29.95,NNW,332,0.0,0.0,55,0.00,,CLR,0.00,VWS V14.01,2013-07-05 04:41:00,
2013-07-04 23:46:00,79.4,61.8,29.95,NNW,332,0.0,0.0,55,0.00,,CLR,0.00,VWS V14.01,2013-07-05 04:46:00,
2013-07-04 23:50:00,79.8,62.2,29.95,NNW,332,0.0,0.0,55,0.00,,CLR,0.00,VWS V14.01,2013-07-05 04:50:00,
2013-07-04 23:51:00,79.3,61.2,29.95,NNW,332,0.0,0.0,54,0.00,,CLR,0.00,VWS V14.01,2013-07-05 04:51:00,
2013-07-04 23:56:00,79.1,61.0,29.95,NNW,332,0.0,0.0,54,0.00,,CLR,0.00,VWS V14.01,2013-07-05 04:56:00,